TimeMDT,TemperatureF,Dew PointF,Humidity,Sea Level PressureIn,VisibilityMPH,Wind Direction,Wind SpeedMPH,Gust SpeedMPH,PrecipitationIn,Events,Conditions,WindDirDegrees,DateUTC
12:51 AM,48.0,28.9,48,29.81,-9999.0,Variable,3.5,-,N/A,,Unknown,0,2013-07-13 06:51:00
1:51 AM,45.0,26.1,48,29.83,-9999.0,Calm,Calm,-,N/A,,Unknown,0,2013-07-13 07:51:00
2:51 AM,41.0,27.0,57,29.86,-9999.0,ESE,3.5,-,N/A,,Unknown,110,2013-07-13 08:51:00
3:51 AM,39.0,26.1,60,29.86,-9999.0,SSE,3.5,-,N/A,,Unknown,160,2013-07-13 09:51:00
4:51 AM,37.9,26.1,62,29.89,-9999.0,South,3.5,-,N/A,,Unknown,170,2013-07-13 10:51:00
5:51 AM,35.1,25.0,67,29.92,-9999.0,Calm,Calm,-,N/A,,Unknown,0,2013-07-13 11:51:00
6:51 AM,35.1,26.1,70,29.95,-9999.0,Calm,Calm,-,N/A,,Unknown,0,2013-07-13 12:51:00
7:51 AM,43.0,28.9,58,29.94,-9999.0,Calm,Calm,-,N/A,,Unknown,0,2013-07-13 13:51:00
8:51 AM,54.0,30.9,41,29.94,-9999.0,Calm,Calm,-,N/A,,Unknown,0,2013-07-13 14:51:00
9:51 AM,63.0,34.0,34,29.95,-9999.0,North,3.5,-,N/A,,Unknown,350,2013-07-13 15:51:00
10:51 AM,69.1,32.0,25,29.93,-9999.0,Variable,5.8,-,N/A,,Unknown,0,2013-07-13 16:51:00
11:51 AM,71.1,30.0,22,29.92,-9999.0,WSW,8.1,-,N/A,,Unknown,250,2013-07-13 17:51:00
12:51 PM,73.0,28.9,20,29.94,-9999.0,Variable,3.5,-,N/A,,Unknown,0,2013-07-13 18:51:00
1:51 PM,73.9,28.9,19,29.93,-9999.0,SW,9.2,17.3,N/A,,Unknown,220,2013-07-13 19:51:00
2:51 PM,75.0,28.0,18,29.94,-9999.0,SW,8.1,-,N/A,,Unknown,220,2013-07-13 20:51:00
3:51 PM,77.0,27.0,16,29.94,-9999.0,SSW,12.7,21.9,N/A,,Unknown,210,2013-07-13 21:51:00
4:51 PM,78.1,23.0,13,29.94,-9999.0,WNW,16.1,24.2,N/A,,Unknown,290,2013-07-13 22:51:00
5:51 PM,75.9,24.1,15,29.95,-9999.0,Variable,4.6,-,N/A,,Unknown,0,2013-07-13 23:51:00
6:51 PM,75.9,25.0,15,29.94,-9999.0,NNW,8.1,-,N/A,,Unknown,340,2013-07-14 00:51:00
7:51 PM,73.0,27.0,18,29.94,-9999.0,West,6.9,-,N/A,,Unknown,280,2013-07-14 01:51:00
8:51 PM,69.1,27.0,21,29.93,-9999.0,West,3.5,-,N/A,,Unknown,260,2013-07-14 02:51:00
9:51 PM,55.0,30.0,38,29.98,-9999.0,Calm,Calm,-,N/A,,Unknown,0,2013-07-14 03:51:00
10:51 PM,51.1,30.0,44,29.99,-9999.0,South,3.5,-,N/A,,Unknown,180,2013-07-14 04:51:00
11:51 PM,46.9,28.9,50,30.00,-9999.0,Calm,Calm,-,N/A,,Unknown,0,2013-07-14 05:51:00